Change the Weather History Date:

Thursday, January 10, 2013

  Actual Average (KSNY) Record (KSNY)
Temperature  
Mean Temperature 38 °F 29 °F  
Max Temperature 51 °F 42 °F 63 °F (2012)
Min Temperature 25 °F 16 °F -14 °F (1977)
Degree Days  
Heating Degree Days 27 36  
Month to date heating degree days 360  
Since 1 July heating degree days 2907  
Cooling Degree Days 0 0  
Month to date cooling degree days 0  
Year to date cooling degree days 0  
Moisture  
Dew Point 28 °F    
Average Humidity 73    
Maximum Humidity 96    
Minimum Humidity 48    
Precipitation  
Precipitation 0.00 in 0.00 in 0.60 in (1963)
Month to date precipitation 0.07  
Year to date precipitation 0.07  
Sea Level Pressure  
Sea Level Pressure 29.69 in    
Wind  
Wind Speed 13 mph (South)    
Max Wind Speed 29 mph    
Max Gust Speed 33 mph    
Visibility 10 miles    
Events      
T = Trace of Precipitation, MM = Missing Value Source: NWS Daily Summary

Daily Weather History Graph

Daily Weather History Graph

Search for Another Location

Airport or City:

Trip Planner

Search our weather history database for the weather conditions in past years. The results will help you decide how hot, cold, wet, or windy it might be!

Date:

Astronomy

Jan. 10, 2013 Rise Set
Actual Time 8:19 AM CST 5:45 PM CST
Civil Twilight 7:48 AM CST 6:16 PM CST
Nautical Twilight 7:14 AM CST 6:50 PM CST
Astronomical Twilight 6:41 AM CST 7:23 PM CST
Moon 7:01 AM CST (1/10) 4:56 PM CST (1/10)
Length of Visible Light 10h 27m
Length of Day
9h 26m
Waning Crescent, 2% of the Moon is Illuminated
Jan 10
Waning Crescent
Jan 11
New
Jan 18
First Quarter
Jan 26
Full
Feb 3
Last Quarter

Hourly Weather History & Observations

Time (CST) Temp. Windchill Dew Point Humidity Pressure Visibility Wind Dir Wind Speed Gust Speed Precip Events Conditions
12:15 AM 30.6 °F 20.7 °F 21.0 °F 68% 30.00 in 10.0 mi South 12.7 mph - N/A   Clear
12:35 AM 30.2 °F 20.8 °F 20.8 °F 68% 29.99 in 10.0 mi South 11.5 mph - N/A   Clear
12:55 AM 30.7 °F 20.4 °F 20.3 °F 65% 29.99 in 10.0 mi South 13.8 mph - N/A   Clear
2:15 AM 28.8 °F 17.9 °F 21.6 °F 74% 29.97 in 10.0 mi South 13.8 mph - N/A   Clear
2:35 AM 28.0 °F 17.0 °F 21.6 °F 77% 29.96 in 10.0 mi South 13.8 mph - N/A   Clear
2:55 AM 27.5 °F 15.4 °F 21.4 °F 78% 29.96 in 10.0 mi South 16.1 mph - N/A   Clear
3:15 AM 27.7 °F 17.1 °F 21.0 °F 76% 29.95 in 10.0 mi South 12.7 mph - N/A   Clear
3:35 AM 26.2 °F 15.2 °F 20.8 °F 80% 29.94 in 10.0 mi South 12.7 mph - N/A   Clear
3:55 AM 26.6 °F 15.7 °F 20.3 °F 77% 29.92 in 10.0 mi South 12.7 mph - N/A   Clear
4:15 AM 27.7 °F 17.1 °F 19.9 °F 73% 29.91 in 10.0 mi South 12.7 mph - N/A   Clear
4:35 AM 28.4 °F 18.0 °F 19.2 °F 69% 29.90 in 10.0 mi South 12.7 mph - N/A   Clear
4:55 AM 29.8 °F 17.7 °F 19.4 °F 65% 29.88 in 10.0 mi South 18.4 mph 26.5 mph N/A   Clear
5:15 AM 29.3 °F 17.0 °F 19.2 °F 66% 29.86 in 10.0 mi South 18.4 mph - N/A   Clear
5:35 AM 27.7 °F 16.1 °F 18.9 °F 69% 29.85 in 10.0 mi South 15.0 mph - N/A   Clear
5:55 AM 26.6 °F 17.5 °F 18.5 °F 71% 29.85 in 10.0 mi SSW 9.2 mph - N/A   Clear
6:35 AM 25.7 °F 19.0 °F 18.1 °F 73% 29.83 in 10.0 mi SW 5.8 mph - N/A   Clear
6:55 AM 25.2 °F 16.5 °F 17.8 °F 74% 29.83 in 10.0 mi SSW 8.1 mph - N/A   Clear
7:15 AM 26.2 °F 17.1 °F 18.0 °F 71% 29.83 in 10.0 mi SSW 9.2 mph - N/A   Clear
7:35 AM 25.9 °F 15.3 °F 18.3 °F 73% 29.81 in 10.0 mi South 11.5 mph - N/A   Clear
7:55 AM 27.1 °F 16.4 °F 18.9 °F 71% 29.81 in 10.0 mi South 12.7 mph - N/A   Clear
8:15 AM 27.0 °F 14.7 °F 19.2 °F 73% 29.81 in 10.0 mi South 16.1 mph - N/A   Clear
8:35 AM 27.7 °F 15.6 °F 19.6 °F 72% 29.80 in 10.0 mi South 16.1 mph - N/A   Clear
8:55 AM 28.9 °F 17.3 °F 20.1 °F 70% 29.79 in 10.0 mi South 16.1 mph - N/A   Clear
9:15 AM 31.5 °F 19.4 °F 21.4 °F 66% 29.77 in 10.0 mi SSE 19.6 mph - N/A   Clear
9:35 AM 32.9 °F 21.6 °F 22.3 °F 65% 29.77 in 10.0 mi South 18.4 mph 26.5 mph N/A   Clear
9:55 AM 35.1 °F 23.8 °F 24.1 °F 64% 29.77 in 10.0 mi South 20.7 mph 26.5 mph N/A   Clear
10:15 AM 36.9 °F 26.5 °F 27.0 °F 67% 29.76 in 10.0 mi South 19.6 mph 27.6 mph N/A   Clear
10:35 AM 39.0 °F 29.9 °F 29.8 °F 70% 29.75 in 10.0 mi South 17.3 mph 29.9 mph N/A   Clear
10:55 AM 43.5 °F 33.5 °F 34.3 °F 70% 29.74 in 10.0 mi South 28.8 mph 33.4 mph N/A   Clear
11:15 AM 44.6 °F 36.4 °F 35.6 °F 71% 29.73 in 10.0 mi South 20.7 mph 32.2 mph N/A   Clear
11:35 AM 45.5 °F 37.3 °F 36.1 °F 70% 29.71 in 10.0 mi South 21.9 mph 28.8 mph N/A   Clear
11:55 AM 46.2 °F 38.7 °F 36.7 °F 69% 29.69 in 10.0 mi South 19.6 mph 26.5 mph N/A   Clear
12:15 PM 48.4 °F - 37.8 °F 67% 29.68 in 10.0 mi South 19.6 mph 28.8 mph N/A   Clear
12:35 PM 48.7 °F - 37.0 °F 64% 29.66 in 10.0 mi South 21.9 mph 26.5 mph N/A   Clear
12:55 PM 49.1 °F - 36.3 °F 61% 29.64 in 10.0 mi SSW 18.4 mph - N/A   Clear
1:15 PM 49.5 °F - 35.4 °F 58% 29.62 in 10.0 mi South 13.8 mph - N/A   Clear
1:35 PM 50.0 °F - 35.2 °F 57% 29.62 in 10.0 mi South 13.8 mph - N/A   Clear
1:55 PM 50.0 °F - 34.5 °F 55% 29.62 in 10.0 mi SSW 11.5 mph - N/A   Clear
2:15 PM 50.2 °F - 34.0 °F 54% 29.62 in 10.0 mi SSW 13.8 mph - N/A   Clear
2:35 PM 51.1 °F - 33.1 °F 50% 29.61 in 10.0 mi SSW 11.5 mph - N/A   Clear
2:55 PM 51.1 °F - 32.2 °F 48% 29.59 in 10.0 mi South 10.4 mph - N/A   Clear
3:15 PM 50.4 °F - 31.8 °F 49% 29.58 in 10.0 mi SSW 10.4 mph - N/A   Clear
3:35 PM 50.0 °F - 31.8 °F 50% 29.57 in 10.0 mi SSW 8.1 mph - N/A   Clear
3:55 PM 49.1 °F - 32.4 °F 53% 29.57 in 10.0 mi South 6.9 mph - N/A   Clear
4:15 PM 48.2 °F - 33.8 °F 58% 29.57 in 10.0 mi South 8.1 mph - N/A   Clear
4:35 PM 46.8 °F - 34.3 °F 62% 29.57 in 10.0 mi SSE 6.9 mph - N/A   Clear
4:55 PM 45.5 °F 41.3 °F 34.7 °F 66% 29.56 in 10.0 mi SSE 8.1 mph - N/A   Clear
5:15 PM 44.1 °F 38.6 °F 36.1 °F 74% 29.55 in 10.0 mi SSE 10.4 mph - N/A   Clear
5:35 PM 43.2 °F 37.4 °F 37.6 °F 81% 29.55 in 10.0 mi SSE 10.4 mph - N/A   Clear
5:55 PM 41.2 °F 36.6 °F 36.7 °F 84% 29.53 in 10.0 mi SSE 6.9 mph - N/A   Scattered Clouds
6:15 PM 40.6 °F 35.4 °F 36.9 °F 86% 29.53 in 10.0 mi SSE 8.1 mph - N/A   Scattered Clouds
6:35 PM 39.9 °F 35.8 °F 36.7 °F 88% 29.53 in 10.0 mi South 5.8 mph - N/A   Clear
6:55 PM 38.3 °F 33.2 °F 35.6 °F 90% 29.52 in 10.0 mi SSW 6.9 mph - N/A   Clear
7:15 PM 38.5 °F 35.0 °F 36.1 °F 91% 29.51 in 10.0 mi South 4.6 mph - N/A   Clear
7:35 PM 37.4 °F 33.8 °F 35.4 °F 93% 29.50 in 10.0 mi South 4.6 mph - N/A   Clear
7:55 PM 36.9 °F 33.1 °F 35.1 °F 93% 29.50 in 10.0 mi SSW 4.6 mph - N/A   Clear
8:15 PM 36.5 °F 31.8 °F 34.7 °F 93% 29.49 in 10.0 mi West 5.8 mph - N/A   Clear
8:35 PM 35.6 °F 31.7 °F 34.0 °F 94% 29.49 in 10.0 mi SSW 4.6 mph - N/A   Clear
8:55 PM 33.8 °F 27.7 °F 32.4 °F 94% 29.49 in 10.0 mi West 6.9 mph - N/A   Clear
9:15 PM 33.1 °F 28.7 °F 32.0 °F 96% 29.49 in 10.0 mi West 4.6 mph - N/A   Clear
9:35 PM 31.8 °F - 30.7 °F 96% 29.49 in 10.0 mi Calm Calm - N/A   Clear
9:55 PM 29.1 °F 24.1 °F 27.9 °F 95% 29.48 in 10.0 mi West 4.6 mph - N/A   Clear
10:15 PM 31.1 °F 25.4 °F 30.2 °F 96% 29.47 in 10.0 mi West 5.8 mph - N/A   Clear
10:35 PM 29.8 °F 23.9 °F 28.8 °F 96% 29.47 in 10.0 mi West 5.8 mph - N/A   Clear
10:55 PM 30.2 °F 23.4 °F 26.1 °F 85% 29.46 in 10.0 mi WNW 6.9 mph - N/A   Clear
11:15 PM 29.7 °F 26.1 °F 25.3 °F 84% 29.45 in 10.0 mi West 3.5 mph - N/A   Clear
11:55 PM 27.5 °F - 23.9 °F 86% 29.43 in 10.0 mi Calm Calm - N/A   Clear